Orbital Elements at Epoch 2459000.5 (2020-May-31.0) TDB
Reference: JPL 24 (heliocentric ecliptic J2000)
Element | Value | Uncertainty (1-sigma) | Units |
e | .6620025983690047 | 1.2998e-07 | |
a | 2.364181490901833 | 7.2203e-08 | au |
q | .7990872009089123 | 3.3146e-07 | au |
i | 2.452160531985965 | 1.1119e-05 | deg |
node | 98.96414822214719 | 0.00054138 | deg |
peri | 191.147808289759 | 0.00051857 | deg |
M | 66.6652763890126 | 2.8396e-05 | deg |
tp | 2458754.623609210020 (2019-Sep-28.12360921) | 9.3492e-05 | TDB |
period | 1327.760199595923 3.64 | 6.0825e-05 1.665e-07 | d yr |
n | .2711332965919287 | 1.2421e-08 | deg/d |
Q | 3.929275780894755 | 1.2e-07 | au |
|
| | Orbit Determination Parameters
Additional Information
|